Weather History for Alexandria Esle, LA

Change the Weather History Date:

Tuesday, January 28, 2014

  Actual Average Record
Temperature  
Mean Temperature 26 °F -  
Max Temperature 32 °F 63 °F 79 °F (1975)
Min Temperature 21 °F 43 °F 21 °F (2004)
Degree Days  
Heating Degree Days 38    
Moisture  
Dew Point 15 °F    
Average Humidity 65    
Maximum Humidity 85    
Minimum Humidity 33    
Precipitation  
Precipitation 0.47 in - - ()
Sea Level Pressure  
Sea Level Pressure 30.35 in    
Wind  
Wind Speed 7 mph (NNE)    
Max Wind Speed 13 mph    
Max Gust Speed 22 mph    
Visibility 8 miles    
Events Fog , Snow    
Averages and records for this station are not official NWS values.
T = Trace of Precipitation, MM = Missing Value Source: NWS Daily Summary

Daily Weather History Graph

Daily Weather History Graph

Search for Another Location

Airport:

Trip Planner

Search our weather history database for the weather conditions in past years. The results will help you decide how hot, cold, wet, or windy it might be!

Date:

Astronomy

Jan. 28, 2014 Rise Set
Actual Time 7:04 AM CST 5:40 PM CST
Civil Twilight 6:38 AM CST 6:06 PM CST
Nautical Twilight 6:09 AM CST 6:35 PM CST
Astronomical Twilight 5:40 AM CST 7:04 PM CST
Moon 4:43 AM CST (1/28) 3:33 PM CST (1/28)
Length of Visible Light 11h 27m
Length of Day
10h 36m
Waning Crescent, 7% of the Moon is Illuminated
Jan 28
Waning Crescent
Jan 30
New
Feb 6
First Quarter
Feb 14
Full
Feb 22
Last Quarter

Hourly Weather History & Observations

Time (CST) Temp. Windchill Dew Point Humidity Pressure Visibility Wind Dir Wind Speed Gust Speed Precip Events Conditions
12:53 AM 32.0 °F 24.8 °F 6.1 °F 34% 30.23 in 10.0 mi NNE 8.1 mph - N/A   Scattered Clouds
1:53 AM 30.9 °F 24.3 °F 5.0 °F 33% 30.23 in 10.0 mi Variable 6.9 mph 19.6 mph 0.00 in   Overcast
2:53 AM 28.9 °F 21.9 °F 12.9 °F 51% 30.25 in 9.0 mi Variable 6.9 mph - 0.00 in   Overcast
3:53 AM 27.0 °F 18.0 °F 19.0 °F 72% 30.26 in 6.0 mi NNE 9.2 mph 17.3 mph 0.05 in   Overcast
4:53 AM 26.1 °F 15.0 °F 18.0 °F 71% 30.25 in 7.0 mi NNE 12.7 mph 21.9 mph 0.05 in   Overcast
5:53 AM 25.0 °F 19.3 °F 18.0 °F 75% 30.29 in 8.0 mi Variable 4.6 mph - 0.06 in   Overcast
6:53 AM 24.1 °F - 17.1 °F 75% 30.33 in - North - - 0.04 in   Unknown
7:53 AM - - - N/A% 30.34 in - North - - N/A   Unknown
8:53 AM - - - N/A% 30.36 in - North - - N/A   Unknown
9:41 AM 21.9 °F 14.5 °F 18.0 °F 85% 30.38 in 1.5 mi Variable 5.8 mph - 0.08 in   Mist
9:53 AM 21.9 °F 12.5 °F 18.0 °F 85% 30.40 in 1.2 mi NNE 8.1 mph - 0.16 in Snow Light Snow
10:04 AM 21.9 °F 13.4 °F 18.0 °F 85% 30.40 in 0.5 mi Variable 6.9 mph - 0.05 in Fog , Snow Snow
10:20 AM 23.0 °F 13.9 °F 18.0 °F 81% 30.40 in 1.0 mi NNE 8.1 mph - 0.10 in Snow Light Snow
10:39 AM 24.1 °F 16.0 °F 19.0 °F 81% 30.39 in 2.0 mi NNE 6.9 mph - 0.11 in Snow Light Snow
10:53 AM 24.1 °F 18.2 °F 18.0 °F 77% 30.39 in 10.0 mi NNE 4.6 mph - 0.11 in   Overcast
11:53 AM 25.0 °F 16.3 °F 16.0 °F 69% 30.38 in 10.0 mi North 8.1 mph 19.6 mph N/A   Overcast
12:53 PM 27.0 °F 18.7 °F 16.0 °F 63% 30.35 in 10.0 mi NE 8.1 mph - N/A   Overcast
1:53 PM 27.0 °F 18.7 °F 12.9 °F 56% 30.34 in 10.0 mi North 8.1 mph 19.6 mph N/A   Scattered Clouds
2:53 PM 28.9 °F 20.4 °F 15.1 °F 56% 30.32 in 10.0 mi NNE 9.2 mph - N/A   Mostly Cloudy
3:53 PM 30.9 °F 26.2 °F 15.1 °F 52% 30.33 in 10.0 mi Variable 4.6 mph - N/A   Clear
4:53 PM 30.0 °F 24.1 °F 16.0 °F 56% 30.35 in 10.0 mi Variable 5.8 mph - N/A   Clear
5:53 PM 30.0 °F - 16.0 °F 56% 30.38 in 10.0 mi Calm Calm - N/A   Clear
6:53 PM 28.0 °F 20.8 °F 15.1 °F 58% 30.39 in 10.0 mi NNE 6.9 mph - N/A   Clear
7:53 PM 27.0 °F 21.6 °F 14.0 °F 58% 30.40 in 10.0 mi Variable 4.6 mph - N/A   Clear
8:53 PM 26.1 °F 19.4 °F 14.0 °F 60% 30.43 in 10.0 mi NNE 5.8 mph - N/A   Clear
9:53 PM 25.0 °F - 14.0 °F 63% 30.44 in 10.0 mi Calm Calm - N/A   Clear
10:53 PM 24.1 °F - 14.0 °F 65% 30.45 in 10.0 mi Calm Calm - N/A   Clear
11:53 PM 23.0 °F - 14.0 °F 68% 30.44 in 10.0 mi Calm Calm - N/A   Clear